www.pogodaiklimat.ru

Погода и климат >> Архив погоды >> Антарктида >> Base Belgrano Ii


ПОГОДА в Base Belgrano Ii

  • Прогноз погоды в Base Belgrano Ii
  • Монитор погоды в Base Belgrano Ii
  • Климат города

АРХИВ ПОГОДЫ в Base Belgrano Ii

Время (UTC), дата Ветер
(напр.,м/с)
 
Видим.   Явления Облачность Т
(С)
Тd
(С)
f
(%)
Тe
(С)
Тes
(С)
Комфортность P
(гПа)
Po
(гПа)
Тmin
(С)
Tmax
(С)
R
(мм)
R24
(мм)
S
(см)
09 11.08 З 7 800 м ледяные иглы {снег, туман} туман ясно -33.1 -36.3 73 -48 -48 опасность
обморожения
992.6 957.3
12 11.08 Ю 6 4000 м в посл. час туман {снег} 10/10 240 м
[St]
-34.0 -37.3 72 -48 -48 опасность
обморожения
994.2 958.6 -35.0 -28.2 0.0 <0.5
15 11.08 штиль 0 20 км ясно -34.4 -37.7 72 -34 -34 опасность
обморожения
995.8 960.5
18 11.08 ЮВ 4 20 км ясно -34.7 -47.2 71 -46 -46 опасность
обморожения
997.3 961.7
21 11.08 ЮВ 4 20 км ясно -37.9 -41.4 70 -50 -50 опасность
обморожения
999.5 963.4
00 12.08 штиль 0 20 км ясно -34.1 -37.4 72 -34 -34 опасность
обморожения
1000.2 964.4 -39.5 -34.0
03 12.08 В 2 20 км ясно -33.1 -36.3 73 -40 -40 опасность
обморожения
1001.9 966.0
06 12.08 штиль 0 20 км ясно -29.9 -37.8 46 -30 -30 1003.3 967.6
09 12.08 штиль 0 20 км ясно -30.1 -41.8 31 -30 -30 1005.6 969.6
12 12.08 В 1 20 км ясно -26.9 -33.2 55 -31 -31 опасность
обморожения
1006.0 970.5 -35.5 -26.9
15 12.08 ЮЗ 9 20 км ясно -30.1 -47.6 16 -46 -46 опасность
обморожения
1008.2 972.4
18 12.08 Ю 10 20 км 5/0
[Cs]
-25.6 -28.3 78 -41 -41 опасность
обморожения
1009.2 973.8
21 12.08 З 4 20 км 6/0
[Cs]
-25.4 -29.5 68 -36 -36 опасность
обморожения
1009.9 974.6
00 13.08 ЮВ 4 20 км 6/0
[Cs]
-19.5 -22.6 76 -28 -28 1008.2 974.0 -30.5 -19.5
03 13.08 В 3 20 км 8/0
[Cs]
-17.5 -19.5 84 -24 -24 1009.3 974.6
06 13.08 Ю 8 20 км 10/0
[Cs]
-14.0 -16.8 79 -25 -25 1007.5 973.4
09 13.08 Ю 8 20 км 10/0
[Cs]
-11.6 -13.0 89 -22 -22 1007.0 973.0
12 13.08 Ю 8 20 км 8/0
[Cs]
-11.2 -14.1 79 -21 -21 1005.2 971.7 -19.5 -11.2
15 13.08 Ю 20 20 км 5/0
[Cs]
-12.9 -16.7 73 -28 -28 1003.9 970.5
18 13.08 Ю 30 4500 м сильный позёмок {метель} 6/0
[As trans Cs]
-13.3 -16.6 76 -30 -30 1001.7 968.6
21 13.08 Ю 30 4000 м сильный позёмок {метель} 6/0
[As trans Cs]
-12.3 -14.8 82 -29 -29 999.4 966.6
00 14.08 Ю 39 900 м метель 6/0
[As trans Cs]
-12.0 -14.0 85 -30 -30 996.3 963.6 -15.0 -9.0
03 14.08 Ю 32 900 м метель ясно -11.7 -13.1 89 -29 -29 994.1 961.4
06 14.08 Ю 18 900 м метель 4/0
[As trans Cs]
-12.9 -15.5 81 -31 -31 опасность
обморожения
991.3 958.6
09 14.08 ЮВ 5 15 км {метель} 6/0
[As trans Cs]
-13.3 -14.9 88 -22 -22 995.9 963.0
12 14.08 СЗ 2 20 км ясно -16.1 -18.0 85 -21 -21 991.7 958.8 -18.5 -11.6
15 14.08 ЮЗ 5 20 км ясно -20.8 -24.1 75 -31 -31 опасность
обморожения
991.4 958.2
18 14.08 З 9 20 км ясно -22.2 -24.6 81 -36 -36 опасность
обморожения
992.2 958.9
21 14.08 Ю 2 20 км ясно -22.6 -27.4 65 -29 -29 993.2 959.8
00 15.08 Ю 9 20 км 4/0
[Cs]
-22.7 -26.3 72 -36 -36 опасность
обморожения
993.7 960.1 -22.7 -16.0
03 15.08 Ю 8 20 км 4/0
[Cs]
-24.3 -29.6 61 -38 -38 опасность
обморожения
994.1 960.1
06 15.08 Ю 10 20 км ясно -25.6 -29.7 68 -41 -41 опасность
обморожения
994.4 960.2
09 15.08 Ю 8 20 км 3/0 2000 м
[Ac und]
-23.6 -26.1 80 -37 -37 опасность
обморожения
994.0 959.8
12 15.08 ЮВ 3 20 км 6/0 2000 м
[]
-21.6 -26.1 67 -29 -29 994.1 960.1 -26.2 -21.6
15 15.08 Ю 7 20 км 8/0
[Cs]
-22.6 -25.1 80 -35 -35 опасность
обморожения
994.6 960.4
18 15.08 ЮВ 6 20 км 9/0
[Ac As]
-21.5 -26.0 67 -33 -33 опасность
обморожения
994.5 960.2
21 15.08 ЮВ 6 20 км 5/0 2000 м
[Ac As]
-22.3 -27.0 65 -34 -34 опасность
обморожения
994.6 960.5
00 16.08 ЮВ 5 20 км 1/0
[Ac As]
-22.5 -25.0 80 -33 -33 опасность
обморожения
995.4 961.4 -23.9 -20.7
03 16.08 ЮВ 8 20 км ясно -22.7 -25.2 80 -36 -36 опасность
обморожения
996.1 962.0
06 16.08 Ю 9 20 км ясно -23.1 -25.6 80 -37 -37 опасность
обморожения
997.1 963.0
09 16.08 ЮВ 9 20 км ясно -23.2 -25.7 80 -37 -37 опасность
обморожения
997.6 963.4
12 16.08 Ю 9 20 км ясно -22.1 -26.7 66 -36 -36 опасность
обморожения
998.1 964.0 -24.0 -21.5
15 16.08 Ю 1 20 км ясно -23.1 -25.6 80 -27 -27 999.5 965.2
18 16.08 Ю 7 20 км 3/0
[Cs]
-21.9 -25.3 74 -34 -34 опасность
обморожения
999.4 965.2
21 16.08 ЮЗ 3 20 км 4/0
[Cs]
-20.9 -25.2 68 -28 -28 999.6 965.4
00 17.08 Ю 12 20 км 4/0
[Cs]
-21.0 -24.3 75 -36 -36 опасность
обморожения
997.8 963.8 -23.5 -20.0
03 17.08 Ю 9 20 км 4/0
[Cs]
-19.8 -22.9 76 -33 -33 опасность
обморожения
997.1 963.0
06 17.08 Ю 12 20 км 6/0
[Cs]
-17.6 -21.2 73 -31 -31 опасность
обморожения
995.2 961.4
09 17.08 ЮВ 3 5000 м слабый снег 10/0 1350 м
[As op]
-14.2 -17.1 79 -20 -20 993.7 960.2
12 17.08 ЮВ 11 4000 м слабый снег {метель} 10/0 1350 м
[As op]
-12.9 -16.1 77 -25 -25 991.9 958.6 -21.0 -12.9 3 1
15 17.08 В 10 10 км позёмок {снег, метель} 10/0 1500 м
[As op]
-9.9 -12.0 85 -21 -21 990.6 957.7
18 17.08 Ю 13 8000 м позёмок {метель} 10/4 450 м
[St As op]
-10.1 -12.3 84 -22 -22 989.3 956.6 1
21 17.08 В 10 8000 м позёмок {метель} 10/4 450 м
[St As op]
-9.3 -11.3 85 -20 -20 987.4 955.0
00 18.08 В 20 1000 м слабый снег {метель} 10/4 360 м
[St As op]
-9.3 -10.4 92 -23 -23 983.1 950.9 -13.5 -8.0 5
03 18.08 Ю 22 1000 м сильный позёмок {снег, метель} 10/4 360 м
[St As op]
-8.1 -9.9 87 -22 -22 981.8 949.8

 

Местоположение метеостанции Base Belgrano Ii (Антарктида): широта -77.86 долгота -34.61 высота над уровнем моря 251 м.

В архиве по умолчанию представлена погода в Base Belgrano Ii за последнюю неделю. Архивные данные за месяц целиком и за предыдущие месяцы, начиная с января 2011 года, Вы можете получить, выбрав интересующий диапазон дат из раскрывающегося списка и нажав кнопку "Ввод!".


*Определитесь, кто Вы:
робот инопланетянин человек

Внимание! Время в таблицах - всемирное. Для получения местного времени необходимо прибавить поправку, которая в Base Belgrano Ii равна 0 ч.

Смотрите также архив погоды в соседних городах и на ближайших метеорологических станциях:

Погода в Halley (Антарктида) (332 км)
Погода в Limbert Aws (Антарктида) (653 км)
Погода в Nordenskiold Base (Антарктида) (790 км)
Погода в Kohnen Ep9 (Антарктида) (941 км)
Погода в Butler Island (Антарктида) (953 км)
Погода в Sky Blue (Антарктида) (1008 км)
Погода в Soerasen (Антарктида) (1009 км)
Погода в Neumayer Station (Антарктида) (1110 км)
Погода в SANAE (Антарктида) (1130 км)
Погода в Fossil Bluff (Антарктида) (1205 км)

Пояснения к столбцам:

Ветер - указаны скорость ветра в м/с - средняя за 10 мин, порывы в срок и между сроками (в фигурных скобках) и направление, откуда дует ветер: С - северный, СВ - северо-восточный, В - восточный, ЮВ - юго-восточный, Ю - южный, ЮЗ - юго-западный, З - западный, СЗ - северо-западный.
Видимость - горизонтальная дальность видимости в метрах или километрах. При видимости от 1 до 10 км при отсутствии осадков обычно наблюдается дымка, при ухудшении видимости до 1 км и менее - туман. В сухую погоду видимость может ухудшаться дымом, пылью или мглою.
Явления - указаны атмосферные явления, наблюдавшиеся в срок или в последний час перед сроком; фигурными скобками обозначены явления, наблюдавшиеся между сроками (за 1-3 часа до срока); квадратными скобками обозначены град или гололедные отложения с указанием их диаметра в мм.
Облачность - указаны через наклонную черту общая и нижняя облачность в баллах и высота нижней границы облаков в метрах; квадратными скобками обозначены формы облаков: Ci - перистые, Cs - перисто-слоистые, Cc - перисто-кучевые, Ac - высококучевые, As - высокослоистые, Sc - слоисто-кучевые, Ns - слоисто-дождевые, Cu - кучевые, Cb - кучево-дождевые. Подробнее классификацию облаков см. в Атласе облаков (PDF).
T - Температура воздуха - температура, измеренная на высоте 2 м над землей.
Td - Температура точки росы - температура, при понижении до которой содержащийся в воздухе водяной пар достигнет насыщения.
f - Относительная влажность воздуха - влажноcть воздуха, измеренная на высоте 2 м над землей.
Te - Эффективная температура - температура, которую ощущает одетый по сезону человек в тени. Характеристика душности погоды. При расчете учитывается влияние влажности воздуха и скорости ветра на теплоощущения человека.
Tes - Эффективная температура на солнце - температура, которую ощущает человек, с поправкой на солнечный нагрев. Характеристика знойности погоды. Зависит от высоты солнца над горизонтом, облачности и скорости ветра. Ночью, в пасмурную погоду, а также при ветре 12 м/с и более поправка равна нулю.
P - Атмосферное давление - приведенное к уровню моря атмосферное давление.
Po - Атмосферное давление - измеренное на уровне метеостанции атмосферное давление.
Tmin - Минимальная температура - минимум температуры воздуха на высоте 2 м над землей.
Tmax - Максимальная температура - максимум температуры воздуха на высоте 2 м над землей.
R - Количество осадков - Количество выпавших осадков за период времени, мм. При наведении курсора мыши на число - период времени, за который выпало указанное количество осадков.
R24 - Количество осадков - Количество выпавших осадков за 24 часа, мм.
S - Снежный покров - Высота снежного покрова, см. При наведении курсора мыши на число - состояние снежного покрова и степень покрытия местности в баллах.